Regional Weather Roundup
Issued by NWS

Home | Current Version | Previous Version | Text Only | Print | Product List | Glossary On
Versions: 1 2 3 4 5 6 7 8 9 10 11 12 13 14 15 16 17 18 19 20 21 22 23 24 25 26 27 28 29 30 31 32 33 34 35 36 37 38 39 40 41 42 43 44 45 46 47 48 49
000
ASUS45 KCYS 071110
RWRWY

WYOMING REGIONAL WEATHER ROUNDUP
NATIONAL WEATHER SERVICE CHEYENNE WY
400 AM MST SUN FEB 07 2016

NOTE:  "FAIR" INDICATES FEW OR NO CLOUDS BELOW 12,000 FEET
WITH NO SIGNIFICANT WEATHER AND/OR OBSTRUCTIONS TO VISIBILITY.

WYZ001-071200-
YELLOWSTONE NATIONAL PARK

CITY           SKY/WX    TMP DP  RH WIND       PRES   REMARKS
LK YELLOWSTONE   N/A      9   6  88 NW3       30.32R
W YELLOWSTONE  NOT AVBL

$$
WYZ002>013-054>058-071-098>099-071200-
NORTHERN WYOMING

CITY           SKY/WX    TMP DP  RH WIND       PRES   REMARKS
JACKSON        MOCLDY    30  21  69 S14G24    30.34R WCI  20
CODY           FAIR      23  16  74 CALM      30.24R
GREYBULL       CLOUDY    37  12  35 N23G33    30.24R WCI  26
WORLAND        CLOUDY    29  17  61 SW3       30.26R
SHERIDAN       CLOUDY    34  19  54 NW18      30.23R WCI  23
BUFFALO        CLOUDY    32  15  49 NW29G39   30.19S WCI  18
GILLETTE       CLOUDY    31  16  54 NW18      30.16R WCI  19
HULETT         CLOUDY    32  14  47 NW12G25   30.12R WCI  23
NEWCASTLE      FAIR      32  18  55 NW20G29   30.12R WCI  20

$$
WYZ014>020-022>026-101>103-071200-
CENTRAL WYOMING

CITY           SKY/WX    TMP DP  RH WIND       PRES   REMARKS
BIG PINEY      FAIR      27  18  69 N22G30    30.31R WCI  13
PINEDALE       FAIR      19  18  93 NW18      30.31R WCI   4
DUBOIS         FAIR      27  14  59 MISG      30.22R
LANDER         FAIR      26  12  55 SW8       30.21R WCI  18
RIVERTON       FAIR      30  14  51 N16G28    30.22R WCI  19
CASPER         FAIR      12   6  77 NW3       30.22R
DOUGLAS        CLOUDY    29  20  69 NW18G24     N/A  WCI  16

$$
WYZ021-027>030-104>119-071200-
SOUTHERN WYOMING

CITY           SKY/WX    TMP DP  RH WIND       PRES   REMARKS
EVANSTON       FAIR      24  12  60 W9        30.40R WCI  14
FORT BRIDGER   SUNNY     25  16  68 W14       30.39F WCI  13
ROCK SPRINGS   FAIR      25  16  68 W21       30.33F WCI  11
DIXON          FAIR       9   4  79 E6        30.37F WCI  -1
RAWLINS        FAIR      22  15  75 SW21      30.24S WCI   6
SARATOGA       FAIR      25  19  80 W33G43    30.22R HAZE    WCI   7
LARAMIE        FAIR      25  16  68 W25G36    30.14F WCI   9
CHEYENNE       FAIR      32  16  51 W15       30.14R WCI  22
TORRINGTON     CLOUDY    29  19  66 NW10      30.18R WCI  20
PINE BLUFFS    FAIR      23  18  80 N7        30.17R WCI  15

$$



USA.gov is the U.S. government's official web portal to all federal, state and local government web resources and services.